Torna al catalogo

COSMOS 1818 COOLANT

LostLEO
NORAD 50771·DEBRIS·🇷🇺 Russia

Lanciato Feb 1, 1987 da Baikonur Cosmodrome

Loading…

Prossimi Passaggi (prossime 24 ore)

TLE

ObsoletoSource: Space-Track

Epoca: Jul 28, 2022, 10:20 UTC

1 50771U 87011AL  22209.43107483  .00000136  00000-0  83913-4 0  9990
2 50771  65.0089 228.8094 0015931 250.4878 109.4487 14.34410661614921

Traccia COSMOS 1818 COOLANT in tempo reale con AllMySat

Download on the App Store